Latest Weather Observations for Moss Vale

IDN60801

Issued at 7:35 am EDT Saturday 25 October 2014 (issued every 30 minutes, with the page automatically refreshed every 10 minutes)

About weather observations | Map of weather stations | Latest weather observations for NSW | Other Formats
Station Details ID: 068239 Name: MOSS VALE AWS Lat: -34.53 Lon: 150.42 Height: 678.4 m
Data from the previous 72 hours. | See also: Recent months at Moss Vale
Date/Time
EDT
Temp
°C
App
Temp
°C
Dew
Point
Rel
Hum
%
Delta-T
°C
Wind Press
QNH
hPa
Press
MSL
hPa
Rain
since 9 am
mm
Dir
 
Spd
km/h
Gust
km/h
Spd
kts
Gust
kts
25/07:30am 15.3 15.2 10.7 74 2.5 WNW 2 9 1 5 1018.3 1017.1 1.0
25/07:00am 14.5 12.6 9.1 70 2.9 W 9 13 5 7 1017.9 1016.7 1.0
25/06:30am 14.6 13.1 9.2 70 2.9 WSW 7 9 4 5 1017.6 1016.5 1.0
25/06:00am 13.2 10.8 8.5 73 2.4 WSW 11 13 6 7 1017.1 1015.9 1.0
25/05:30am 15.0 12.9 9.6 70 2.9 W 11 15 6 8 1016.5 1015.3 1.0
25/05:00am 13.3 12.0 9.9 80 1.8 WSW 7 11 4 6 1015.8 1014.6 1.0
25/04:30am 14.7 12.0 10.5 76 2.3 W 15 20 8 11 1015.3 1014.1 1.0
25/04:19am 14.1 11.3 11.3 83 1.5 W 17 20 9 11 1015.2 1014.0 1.0
25/04:00am 12.6 10.3 11.7 94 0.5 W 15 17 8 9 1015.3 1014.1 1.0
25/03:30am 13.3 12.1 11.5 89 1.0 W 9 13 5 7 1015.1 1013.9 1.0
25/03:26am 13.1 11.9 11.7 91 0.8 W 9 13 5 7 1015.0 1013.8 1.0
25/03:25am 14.8 14.3 13.7 93 0.6 W 9 13 5 7 1015.0 1013.8 1.0
25/03:06am 14.6 14.0 13.5 93 0.6 W 9 9 5 5 1015.0 1013.8 1.0
25/03:03am 15.0 14.6 14.0 94 0.6 WSW 9 9 5 5 1015.0 1013.8 1.0
25/03:00am 15.1 14.7 14.1 94 0.6 WSW 9 9 5 5 1015.0 1013.8 1.0
25/02:43am 15.0 14.9 14.0 94 0.6 WSW 7 13 4 7 1015.1 1013.9 1.0
25/02:39am 15.3 15.3 14.3 94 0.6 W 7 9 4 5 1015.1 1013.9 1.0
25/02:30am 15.1 15.3 14.1 94 0.6 W 6 7 3 4 1015.1 1013.9 1.0
25/02:07am 15.2 15.4 14.1 93 0.6 W 6 7 3 4 1015.1 1013.9 1.0
25/02:00am 15.6 15.9 14.5 93 0.6 W 6 7 3 4 1015.2 1014.0 1.0
25/01:30am 15.6 15.9 14.5 93 0.6 WNW 6 7 3 4 1015.3 1014.1 1.0
25/01:00am 15.5 15.6 13.9 90 0.9 WNW 6 7 3 4 1015.4 1014.2 1.0
25/12:30am 16.6 16.7 14.4 87 1.3 NW 7 9 4 5 1015.6 1014.4 1.0
25/12:00am 17.9 18.2 15.0 83 1.7 N 7 9 4 5 1015.5 1014.3 1.0
 
Date/Time
EDT
Temp
°C
App
Temp
°C
Dew
Point
Rel
Hum
%
Delta-T
°C
Wind Press
QNH
hPa
Press
MSL
hPa
Rain
since 9 am
mm
Dir
 
Spd
km/h
Gust
km/h
Spd
kts
Gust
kts
24/11:30pm 17.3 16.4 14.8 85 1.5 NE 13 15 7 8 1015.4 1014.2 1.0
24/11:00pm 17.6 16.8 15.0 85 1.6 NE 13 15 7 8 1015.7 1014.5 1.0
24/10:30pm 18.2 17.8 15.1 82 1.9 NE 11 15 6 8 1016.1 1015.0 1.0
24/10:00pm 18.9 17.8 15.4 80 2.1 E 15 20 8 11 1016.4 1015.2 1.0
24/09:30pm 19.4 18.4 15.7 79 2.3 S 15 19 8 10 1016.3 1015.1 1.0
24/09:00pm 19.9 17.6 15.7 77 2.6 NNE 22 28 12 15 1015.4 1014.2 1.0
24/08:30pm 20.0 18.0 15.6 76 2.7 NNE 20 28 11 15 1015.2 1014.0 1.0
24/08:00pm 20.4 18.1 15.8 75 2.8 NNE 22 28 12 15 1015.2 1014.0 1.0
24/07:30pm 20.6 18.2 15.4 72 3.2 NE 22 30 12 16 1014.9 1013.7 1.0
24/07:00pm 20.6 18.1 14.0 66 3.9 NNE 20 26 11 14 1014.9 1013.7 1.0
24/06:30pm 21.4 19.7 14.6 65 4.1 NNE 17 24 9 13 1014.6 1013.4 1.0
24/06:00pm 21.5 18.6 13.9 62 4.5 NNE 22 28 12 15 1014.5 1013.3 1.0
24/05:30pm 22.1 18.8 15.0 64 4.3 NNE 26 32 14 17 1014.8 1013.6 1.0
24/05:00pm 23.8 21.0 15.3 59 5.2 N 24 33 13 18 1014.9 1013.7 1.0
24/04:30pm 23.2 19.7 15.5 62 4.8 N 28 35 15 19 1015.0 1013.8 1.0
24/04:00pm 23.5 18.9 14.5 57 5.5 N 32 41 17 22 1015.3 1014.1 1.0
24/03:30pm 23.7 18.4 14.1 55 5.8 N 35 44 19 24 1015.5 1014.3 1.0
24/03:00pm 23.8 18.1 13.1 51 6.4 NNE 35 43 19 23 1015.7 1014.5 1.0
24/02:30pm 23.6 18.7 14.3 56 5.6 NNE 33 44 18 24 1016.1 1015.0 1.0
24/02:00pm 23.4 18.5 13.6 54 5.9 NNE 32 48 17 26 1016.6 1015.4 1.0
24/01:30pm 22.7 17.2 12.6 53 5.9 NNE 33 43 18 23 1017.1 1015.9 1.0
24/01:00pm 22.8 18.0 14.1 58 5.2 NNE 32 41 17 22 1017.7 1016.6 1.0
24/12:30pm 23.0 18.3 13.2 54 5.8 NNE 30 39 16 21 1018.1 1016.9 1.0
24/12:00pm 22.8 18.1 12.1 51 6.2 NNE 28 37 15 20 1018.7 1017.6 1.0
24/11:30am 22.2 17.7 12.7 55 5.6 N 28 35 15 19 1019.6 1018.4 1.0
24/11:00am 20.5 15.6 11.4 56 5.2 N 28 33 15 18 1020.2 1019.1 1.0
24/10:30am 20.2 16.6 13.2 64 4.1 NNE 24 30 13 16 1020.4 1019.3 1.0
24/10:00am 17.3 13.4 12.2 72 2.9 NNE 24 28 13 15 1020.6 1019.5 1.0
24/09:30am 15.8 11.9 12.2 79 2.0 NNW 24 30 13 16 1020.8 1019.7 1.0
24/09:29am 15.8 11.5 12.2 79 2.0 NNW 26 30 14 16 1020.7 1019.6 1.0
24/09:11am 15.2 10.5 12.0 81 1.8 NE 28 41 15 22 1020.9 1019.8 0.6
24/09:08am 15.4 14.7 12.0 80 1.9 N 7 20 4 11 1021.8 1020.7 0.4
24/09:00am 15.9 14.7 11.7 76 2.3 WSW 9 13 5 7 1022.7 1021.6 0.4
24/08:30am 16.2 14.1 11.2 72 2.8 NW 13 24 7 13 1021.7 1020.6 0.4
24/08:00am 15.7 14.5 11.7 77 2.2 NNE 9 13 5 7 1021.3 1020.2 0.4
24/07:30am 15.0 12.3 10.2 73 2.6 NNW 15 20 8 11 1021.4 1020.3 0.4
24/07:00am 14.9 12.8 9.9 72 2.7 ENE 11 15 6 8 1020.6 1019.5 0.4
24/06:30am 15.6 11.8 9.7 68 3.2 N 20 28 11 15 1020.6 1019.5 0.4
24/06:00am 13.4 8.5 11.3 87 1.1 ENE 28 32 15 17 1019.8 1018.6 0.4
24/05:57am 13.4 8.5 11.3 87 1.2 ENE 28 30 15 16 1019.8 1018.6 0.4
24/05:30am 13.5 12.5 11.0 85 1.4 SSE 7 15 4 8 1021.8 1020.7 0.2
24/05:00am 13.9 10.7 11.2 84 1.5 SE 19 24 10 13 1021.3 1020.2 0.2
24/04:30am 13.3 11.5 10.8 85 1.4 ENE 11 13 6 7 1020.9 1019.8 0.2
24/04:00am 13.9 14.3 11.1 83 1.5 CALM 0 0 0 0 1021.5 1020.4 0.0
24/03:30am 13.9 12.6 11.1 83 1.5 SE 9 13 5 7 1021.7 1020.6 0.0
24/03:00am 14.4 13.5 10.6 78 2.1 SW 6 11 3 6 1021.6 1020.5 0.0
24/02:30am 14.7 10.3 10.5 76 2.3 NW 24 32 13 17 1021.5 1020.4 0.0
24/02:00am 14.0 10.9 10.2 78 2.0 N 17 20 9 11 1021.1 1019.9 0.0
24/01:30am 15.2 12.0 9.8 70 2.9 NE 17 26 9 14 1020.3 1019.2 0.0
24/01:07am 14.8 11.7 12.1 84 1.5 N 20 24 11 13 1020.8 1019.7 0.0
24/01:00am 14.2 11.2 12.6 90 0.9 N 20 24 11 13 1020.8 1019.7 0.0
24/12:43am 14.4 12.8 12.8 90 0.9 ENE 13 22 7 12 1022.1 1021.0 0.0
24/12:38am 14.5 13.3 12.9 90 0.9 E 11 13 6 7 1023.0 1021.9 0.0
24/12:30am 14.6 13.8 13.0 90 0.9 ESE 9 13 5 7 1023.3 1022.2 0.0
24/12:00am 14.8 13.8 13.5 92 0.7 SE 11 17 6 9 1023.1 1022.0 0.0
 
Date/Time
EDT
Temp
°C
App
Temp
°C
Dew
Point
Rel
Hum
%
Delta-T
°C
Wind Press
QNH
hPa
Press
MSL
hPa
Rain
since 9 am
mm
Dir
 
Spd
km/h
Gust
km/h
Spd
kts
Gust
kts
23/11:51pm 14.8 14.2 13.5 92 0.7 SSE 9 15 5 8 1023.3 1022.2 0.0
23/11:30pm 14.5 13.7 12.9 90 0.9 ESE 9 13 5 7 1023.0 1021.9 0.0
23/11:00pm 14.9 12.3 13.1 89 1.0 SSE 19 22 10 12 1022.4 1021.4 0.0
23/10:30pm 14.5 15.3 12.4 87 1.2 CALM 0 0 0 0 1022.1 1021.0 0.0
23/10:00pm 14.3 13.9 12.3 88 1.1 ENE 6 7 3 4 1022.1 1021.0 0.0
23/09:30pm 14.8 14.1 11.9 83 1.6 SE 7 11 4 6 1022.0 1020.9 0.0
23/09:00pm 15.9 15.4 12.5 80 1.9 SSE 7 11 4 6 1022.0 1020.9 0.0
23/08:30pm 15.7 15.1 12.3 80 1.9 SW 7 9 4 5 1021.6 1020.5 0.0
23/08:00pm 17.1 16.2 12.6 75 2.6 E 9 13 5 7 1021.1 1019.9 0.0
23/07:30pm 18.1 16.8 12.5 70 3.2 NNE 11 17 6 9 1021.2 1020.1 0.0
23/07:00pm 18.5 17.3 12.7 69 3.3 ENE 11 15 6 8 1020.7 1019.6 0.0
23/06:30pm 19.7 18.3 12.2 62 4.3 SE 11 17 6 9 1020.4 1019.3 0.0
23/06:00pm 20.7 18.9 13.4 63 4.3 ESE 15 20 8 11 1019.9 1018.8 0.0
23/05:30pm 20.5 17.4 13.5 64 4.1 SE 22 28 12 15 1019.5 1018.3 0.0
23/05:00pm 20.9 17.1 12.3 58 5.0 SSE 24 32 13 17 1019.2 1018.1 0.0
23/04:30pm 21.7 17.2 9.9 47 6.6 SE 24 32 13 17 1018.9 1017.8 0.0
23/04:00pm 22.1 18.8 11.5 51 6.1 SSE 20 28 11 15 1018.9 1017.8 0.0
23/03:30pm 23.5 21.1 12.5 50 6.5 SSE 17 24 9 13 1018.8 1017.7 0.0
23/03:00pm 23.5 22.3 12.8 51 6.3 ESE 11 13 6 7 1018.7 1017.6 0.0
23/02:30pm 23.6 20.0 10.6 44 7.4 ESE 20 24 11 13 1018.8 1017.7 0.0
23/02:00pm 24.7 22.8 10.6 41 8.1 SE 11 17 6 9 1019.2 1018.1 0.0
23/01:30pm 25.1 21.9 8.6 35 9.2 S 15 20 8 11 1019.6 1018.4 0.0
23/01:00pm 24.6 22.4 10.8 42 7.9 S 13 20 7 11 1019.8 1018.6 0.0
23/12:30pm 24.6 23.0 12.9 48 7.0 SSW 13 19 7 10 1020.1 1019.0 0.0
23/12:00pm 24.1 20.9 11.4 45 7.4 SSW 19 20 10 11 1020.2 1019.1 0.0
23/11:30am 23.7 20.3 11.4 46 7.1 SW 20 26 11 14 1020.3 1019.2 0.0
23/11:00am 23.5 20.1 11.2 46 7.1 SSW 20 28 11 15 1020.5 1019.4 0.0
23/10:30am 23.0 22.0 14.6 59 5.1 WSW 13 17 7 9 1020.5 1019.4 0.0
23/10:00am 21.7 19.2 12.3 55 5.5 WSW 17 20 9 11 1020.4 1019.3 0.0
23/09:30am 20.7 18.4 11.6 56 5.2 WSW 15 22 8 12 1020.3 1019.2 0.0
23/09:00am 18.7 18.0 13.3 71 3.2 WSW 9 13 5 7 1020.5 1019.4 0.0
23/08:30am 16.3 16.0 12.8 80 2.0 W 6 9 3 5 1020.3 1019.2 0.0
23/08:00am 13.7 14.4 12.1 90 0.9 CALM 0 7 0 4 1020.4 1019.3 0.0
23/07:30am 12.6 13.1 11.5 93 0.6 CALM 0 0 0 0 1020.3 1019.2 0.0
23/07:00am 9.7 9.4 8.8 94 0.5 CALM 0 0 0 0 1020.2 1019.1 0.0
23/06:30am 9.5 8.8 8.6 94 0.5 WSW 2 6 1 3 1020.0 1018.9 0.0
23/06:00am 9.5 8.1 8.7 95 0.4 NW 6 7 3 4 1019.7 1018.5 0.0
23/05:45am 8.9 7.3 8.0 94 0.4 W 6 7 3 4 1019.6 1018.4 0.0
23/05:30am 9.1 8.3 8.2 94 0.5 N 2 7 1 4 1019.3 1018.2 0.0
23/05:18am 9.4 9.1 8.5 94 0.5 CALM 0 0 0 0 1019.0 1017.9 0.0
23/05:00am 8.9 8.1 8.0 94 0.4 NNW 2 7 1 4 1018.8 1017.7 0.0
23/04:56am 9.0 8.6 8.1 94 0.4 CALM 0 0 0 0 1018.9 1017.8 0.0
23/04:46am 9.9 9.7 9.0 94 0.5 CALM 0 0 0 0 1019.1 1018.0 0.0
23/04:30am 9.6 9.3 8.7 94 0.5 CALM 0 0 0 0 1019.1 1018.0 0.0
23/04:18am 9.5 9.2 8.6 94 0.5 CALM 0 0 0 0 1019.1 1018.0 0.0
23/04:00am 9.7 9.4 8.8 94 0.5 CALM 0 0 0 0 1019.0 1017.9 0.0
23/03:39am 10.0 9.8 8.9 93 0.6 CALM 0 0 0 0 1019.1 1018.0 0.0
23/03:30am 9.7 9.4 8.6 93 0.6 CALM 0 0 0 0 1019.2 1018.1 0.0
23/03:20am 9.9 9.6 8.8 93 0.6 CALM 0 0 0 0 1019.2 1018.1 0.0
23/03:00am 10.0 9.7 8.8 92 0.6 CALM 0 0 0 0 1019.5 1018.3 0.0
23/02:30am 10.5 10.3 9.1 91 0.7 CALM 0 0 0 0 1019.7 1018.5 0.0
23/02:00am 10.6 10.4 9.0 90 0.8 CALM 0 0 0 0 1020.0 1018.9 0.0
23/01:30am 11.0 10.9 9.3 89 0.9 CALM 0 0 0 0 1020.2 1019.1 0.0
23/01:00am 11.5 11.3 9.1 85 1.2 CALM 0 4 0 2 1020.5 1019.4 0.0
23/12:30am 12.1 10.4 9.8 86 1.2 NNE 9 9 5 5 1020.7 1019.6 0.0
23/12:00am 12.6 10.9 9.8 83 1.5 NNE 9 9 5 5 1020.9 1019.8 0.0
 
Date/Time
EDT
Temp
°C
App
Temp
°C
Dew
Point
Rel
Hum
%
Delta-T
°C
Wind Press
QNH
hPa
Press
MSL
hPa
Rain
since 9 am
mm
Dir
 
Spd
km/h
Gust
km/h
Spd
kts
Gust
kts
22/11:30pm 13.8 12.7 10.6 81 1.7 N 7 11 4 6 1021.2 1020.1 0.0
22/11:00pm 13.4 12.3 9.8 79 1.9 N 6 9 3 5 1021.4 1020.3 0.0
22/10:30pm 13.6 12.2 9.6 77 2.1 NNE 7 13 4 7 1021.5 1020.4 0.0
22/10:00pm 14.4 12.6 9.6 73 2.6 N 9 13 5 7 1021.5 1020.4 0.0
22/09:30pm 15.0 13.0 10.2 73 2.6 N 11 15 6 8 1021.4 1020.3 0.0
22/09:00pm 15.5 13.4 9.8 69 3.1 N 11 15 6 8 1021.4 1020.3 0.0
22/08:30pm 16.0 13.6 9.9 67 3.3 N 13 17 7 9 1021.2 1020.1 0.0
22/08:00pm 15.7 13.3 10.2 70 3.0 N 13 19 7 10 1021.1 1019.9 0.0
22/07:30pm 15.3 12.2 10.3 72 2.7 N 17 20 9 11 1020.9 1019.8 0.0
22/07:00pm 16.6 13.2 10.5 67 3.3 NNE 19 24 10 13 1020.9 1019.8 0.0
22/06:30pm 17.4 14.1 11.0 66 3.6 NNE 19 24 10 13 1020.7 1019.6 0.0
22/06:00pm 18.3 14.9 11.4 64 3.9 NE 20 30 11 16 1020.6 1019.5 0.0
22/05:30pm 19.2 15.5 11.5 61 4.4 NNE 22 30 12 16 1020.7 1019.6 0.0
22/05:00pm 19.5 15.4 11.3 59 4.6 NNE 24 33 13 18 1020.6 1019.5 0.0
22/04:30pm 19.7 15.3 11.7 60 4.6 NNE 26 32 14 17 1020.6 1019.5 0.0
22/04:00pm 20.2 16.7 13.4 65 4.0 NE 24 30 13 16 1021.1 1019.9 0.0
22/03:30pm 19.7 16.4 11.7 60 4.6 NE 20 28 11 15 1021.4 1020.3 0.0
22/03:00pm 19.7 16.6 11.5 59 4.7 NNE 19 26 10 14 1021.8 1020.7 0.0
22/02:30pm 19.4 16.1 9.6 53 5.4 NNE 17 24 9 13 1022.3 1021.2 0.0
22/02:00pm 20.0 17.6 9.9 52 5.6 N 13 20 7 11 1023.1 1022.0 0.0
22/01:30pm 18.8 15.3 8.7 52 5.4 N 17 22 9 12 1023.4 1022.3 0.0
22/01:00pm 18.2 15.4 11.3 64 3.9 N 17 22 9 12 1024.0 1023.0 0.0
22/12:30pm 16.7 12.1 6.5 51 5.2 N 20 26 11 14 1024.5 1023.4 0.0
22/12:00pm 16.1 11.5 6.3 52 4.9 N 20 28 11 15 1025.1 1024.1 0.0
22/11:30am 15.7 10.9 7.2 57 4.4 N 22 30 12 16 1025.4 1024.4 0.0
22/11:00am 15.1 9.9 7.4 60 3.9 N 24 33 13 18 1025.9 1024.8 0.0
22/10:30am 14.0 8.1 5.6 57 4.1 NNE 26 35 14 19 1026.1 1025.0 0.0
22/10:00am 13.2 7.5 4.9 57 4.0 N 24 32 13 17 1026.2 1025.1 0.0
22/09:30am 12.4 5.9 4.9 60 3.6 N 28 35 15 19 1026.3 1025.3 0.0
22/09:00am 12.0 6.1 5.6 65 3.1 N 26 35 14 19 1026.4 1025.4 0.0
22/08:30am 10.5 3.2 4.4 66 2.8 N 32 39 17 21 1026.3 1025.3 0.0
22/08:00am 10.1 2.6 4.7 69 2.5 NNE 33 43 18 23 1026.5 1025.5 0.0

Other Formats:

Comma delimited format used in spreadsheet applications
http://www.bom.gov.au/fwo/IDN60801/IDN60801.94746.axf

JavaScript Object Notation format (JSON) in row-major order
http://www.bom.gov.au/fwo/IDN60801/IDN60801.94746.json